TimeCDT,TemperatureF,Dew PointF,Humidity,Sea Level PressureIn,VisibilityMPH,Wind Direction,Wind SpeedMPH,Gust SpeedMPH,PrecipitationIn,Events,Conditions,WindDirDegrees,DateUTC
12:53 AM,66.9,64.0,90,29.97,7.0,North,-9999.0,-,N/A,,Clear,0,2012-09-25 05:53:00
1:53 AM,64.9,63.0,93,29.97,4.0,North,-9999.0,-,N/A,,Clear,0,2012-09-25 06:53:00
2:33 AM,64.4,62.6,94,29.98,2.5,North,-9999.0,-,N/A,,Clear,0,2012-09-25 07:33:00
2:41 AM,64.4,64.4,100,29.98,3.0,North,-9999.0,-,N/A,,Clear,0,2012-09-25 07:41:00
2:53 AM,64.9,63.0,93,29.96,4.0,North,-9999.0,-,N/A,,Clear,0,2012-09-25 07:53:00
3:06 AM,62.6,62.6,100,29.98,1.8,North,-9999.0,-,N/A,,Clear,0,2012-09-25 08:06:00
3:53 AM,63.0,62.1,97,29.96,1.5,North,-9999.0,-,N/A,,Clear,0,2012-09-25 08:53:00
4:23 AM,62.6,60.8,94,29.97,3.0,North,-9999.0,-,N/A,,Clear,0,2012-09-25 09:23:00
4:31 AM,62.6,62.6,100,29.98,1.8,North,-9999.0,-,N/A,,Clear,0,2012-09-25 09:31:00
4:53 AM,63.0,62.1,97,29.96,2.0,North,-9999.0,-,N/A,,Clear,0,2012-09-25 09:53:00
5:04 AM,64.4,62.6,94,29.98,4.0,North,-9999.0,-,N/A,,Clear,0,2012-09-25 10:04:00
5:17 AM,62.6,62.6,100,29.98,2.0,North,-9999.0,-,N/A,,Clear,0,2012-09-25 10:17:00
5:23 AM,64.4,62.6,94,29.98,0.8,North,-9999.0,-,N/A,,Clear,0,2012-09-25 10:23:00
5:47 AM,62.6,60.8,94,29.98,0.2,North,-9999.0,-,N/A,Fog,Fog,0,2012-09-25 10:47:00
5:53 AM,63.0,62.1,97,29.97,0.2,North,-9999.0,-,N/A,Fog,Fog,0,2012-09-25 10:53:00
6:01 AM,62.6,62.6,100,29.98,0.2,North,-9999.0,-,N/A,Fog,Fog,0,2012-09-25 11:01:00
6:26 AM,62.6,60.8,94,29.98,0.2,North,-9999.0,-,N/A,Fog,Fog,0,2012-09-25 11:26:00
6:37 AM,60.8,60.8,100,29.98,0.2,North,-9999.0,-,N/A,Fog,Fog,0,2012-09-25 11:37:00
6:43 AM,60.8,60.8,100,29.98,1.0,North,-9999.0,-,N/A,,Mist,0,2012-09-25 11:43:00
6:53 AM,61.0,61.0,100,29.98,0.5,North,-9999.0,-,N/A,Fog,Fog,0,2012-09-25 11:53:00
6:58 AM,60.8,60.8,100,29.99,0.2,North,-9999.0,-,N/A,Fog,Fog,0,2012-09-25 11:58:00
7:38 AM,60.8,60.8,100,30.00,0.2,North,-9999.0,-,N/A,Fog,Fog,0,2012-09-25 12:38:00
7:46 AM,60.8,60.8,100,30.01,0.2,North,-9999.0,-,N/A,Fog,Fog,0,2012-09-25 12:46:00
7:53 AM,61.0,60.1,97,29.99,0.2,North,-9999.0,-,N/A,Fog,Fog,0,2012-09-25 12:53:00
8:02 AM,62.6,60.8,94,30.01,0.2,North,-9999.0,-,N/A,Fog,Fog,0,2012-09-25 13:02:00
8:11 AM,64.4,62.6,94,30.01,0.2,North,-9999.0,-,N/A,Fog,Fog,0,2012-09-25 13:11:00
8:24 AM,64.4,64.4,100,30.01,0.8,North,-9999.0,-,N/A,,Mist,0,2012-09-25 13:24:00
8:32 AM,66.2,64.4,94,30.01,1.2,North,-9999.0,-,N/A,,Partly Cloudy,0,2012-09-25 13:32:00
8:53 AM,68.0,66.9,96,30.00,2.5,North,-9999.0,-,N/A,,Clear,0,2012-09-25 13:53:00
9:14 AM,71.6,66.2,83,30.01,3.0,North,-9999.0,-,N/A,,Clear,0,2012-09-25 14:14:00
9:37 AM,73.4,68.0,83,30.02,4.0,North,-9999.0,-,N/A,,Haze,0,2012-09-25 14:37:00
9:53 AM,75.0,69.1,82,30.00,5.0,North,-9999.0,-,N/A,,Haze,0,2012-09-25 14:53:00
10:19 AM,77.0,69.8,78,30.02,5.0,North,-9999.0,-,N/A,,Haze,0,2012-09-25 15:19:00
10:53 AM,81.0,69.1,67,30.00,9.0,North,-9999.0,-,N/A,,Clear,0,2012-09-25 15:53:00
11:53 AM,86.0,66.0,51,29.98,10.0,North,-9999.0,-,N/A,,Clear,0,2012-09-25 16:53:00
12:53 PM,89.1,62.1,40,29.97,10.0,North,-9999.0,-,N/A,,Clear,0,2012-09-25 17:53:00
2:53 PM,91.9,59.0,33,29.91,10.0,North,-9999.0,-,N/A,,Clear,0,2012-09-25 19:53:00
3:53 PM,93.0,57.0,30,29.88,10.0,North,-9999.0,-,N/A,,Clear,0,2012-09-25 20:53:00
4:53 PM,91.9,59.0,33,29.88,10.0,North,-9999.0,-,N/A,,Clear,0,2012-09-25 21:53:00
5:53 PM,91.0,59.0,34,29.88,10.0,North,-9999.0,-,N/A,,Clear,0,2012-09-25 22:53:00
6:53 PM,87.1,61.0,41,29.89,10.0,North,-9999.0,-,N/A,,Clear,0,2012-09-25 23:53:00
7:53 PM,82.9,62.1,49,29.90,10.0,North,-9999.0,-,N/A,,Clear,0,2012-09-26 00:53:00
8:53 PM,80.1,62.1,54,29.91,10.0,North,-9999.0,-,N/A,,Clear,0,2012-09-26 01:53:00
9:53 PM,79.0,63.0,58,29.90,10.0,North,-9999.0,-,N/A,,Clear,0,2012-09-26 02:53:00
10:53 PM,78.1,63.0,60,29.93,10.0,North,-9999.0,-,N/A,,Clear,0,2012-09-26 03:53:00